Date String (YYYY-MM-DD hh:mm:ss) UTC,Instrument flags,Ambient pressure (hPa),Sample flow (lpm),Bypass flow (lpm),Sample temperature (°C),Ambient temperature (°C),ASC tube jacket temperature (°C),LED temperature (°C),Box temperature (°C),Sample RH (%),Span deviation,Mass concentration (μg/m³),Mass concentration (μg/m³),Mass concentration (μg/m³)
DateTimeUTC,F1_M11,P_M11,Q1_M11,Q2_M11,T1_M11,T2_M11,T3_M11,T4_M11,T5_M11,U1_M11,ZSPAN_M11,X2_M11,X0_M11,X1_M11
2022-03-22 05:00:00,,0827.6,4.99,0.00,22.6,22.9,00.0,31.4,24.6,10.1,0000.0,0003.05,0006.16,0002.33
2022-03-22 05:01:00,,0827.6,4.99,0.00,22.6,22.6,00.0,31.4,24.5,09.9,0000.0,0002.98,0006.16,0002.30
2022-03-22 05:02:00,,0827.6,4.99,0.00,22.6,22.5,00.0,31.4,24.4,09.9,0000.0,0002.99,0006.20,0002.28
2022-03-22 05:03:00,,0827.5,5.01,0.00,22.6,22.3,00.0,31.4,24.4,10.0,0000.0,0002.99,0006.31,0002.24
2022-03-22 05:04:00,,0827.6,4.99,0.00,22.6,22.2,00.0,31.4,24.4,09.9,0000.0,0002.91,0006.23,0002.22
2022-03-22 05:05:00,,0827.6,5.00,0.00,22.6,22.0,00.0,31.4,24.3,10.0,0000.0,0002.84,0006.05,0002.20
2022-03-22 05:06:00,,0827.6,5.01,0.00,22.6,22.0,00.0,31.4,24.3,10.0,0000.0,0002.83,0006.01,0002.20
2022-03-22 05:07:00,,0827.6,5.00,0.00,22.5,21.9,00.0,31.4,24.3,10.0,0000.0,0002.85,0006.06,0002.18
2022-03-22 05:08:00,,0827.6,5.01,0.00,22.5,21.8,00.0,31.4,24.3,10.1,0000.0,0002.86,0006.14,0002.17
2022-03-22 05:09:00,,0827.6,5.00,0.00,22.5,21.8,00.0,31.5,24.3,10.2,0000.0,0002.75,0005.84,0002.15
2022-03-22 05:10:00,,0827.6,5.00,0.00,22.5,21.8,00.0,31.5,24.3,10.1,0000.0,0002.74,0005.72,0002.14
2022-03-22 05:11:00,,0827.6,4.98,0.00,22.5,21.7,00.0,31.5,24.3,10.0,0000.0,0002.79,0005.33,0002.13
2022-03-22 05:12:00,,0827.6,5.00,0.00,22.5,21.7,00.0,31.5,24.2,10.1,0000.0,0002.84,0004.59,0002.15
2022-03-22 05:13:00,,0827.6,5.01,0.00,22.5,21.6,00.0,31.5,24.2,09.9,0000.0,0002.85,0004.61,0002.15
2022-03-22 05:14:00,,0827.6,5.01,0.00,22.5,21.6,00.0,31.4,24.2,09.9,0000.0,0002.81,0004.41,0002.17
2022-03-22 05:15:00,,0827.6,5.00,0.00,22.4,21.6,00.0,31.4,24.2,10.0,0000.0,0002.87,0004.44,0002.18
2022-03-22 05:16:00,,0827.6,5.01,0.00,22.4,21.5,00.0,31.4,24.2,10.1,0000.0,0002.91,0004.57,0002.17
2022-03-22 05:17:00,,0827.6,5.00,0.00,22.4,21.5,00.0,31.4,24.1,10.1,0000.0,0002.98,0005.28,0002.17
2022-03-22 05:18:00,,0827.6,5.00,0.00,22.4,21.5,00.0,31.4,24.1,10.0,0000.0,0003.01,0005.56,0002.18
2022-03-22 05:19:00,,0827.6,5.00,0.00,22.4,21.5,00.0,31.4,24.1,09.9,0000.0,0002.96,0005.78,0002.18
2022-03-22 05:20:00,,0827.6,5.00,0.00,22.4,21.5,00.0,31.4,24.1,10.0,0000.0,0003.02,0006.52,0002.19
2022-03-22 05:21:00,,0827.7,5.00,0.00,22.4,21.5,00.0,31.4,24.1,10.2,0000.0,0003.01,0007.23,0002.18
2022-03-22 05:22:00,,0827.6,5.00,0.00,22.3,21.5,00.0,31.4,24.1,10.2,0000.0,0002.96,0007.09,0002.18
2022-03-22 05:23:00,,0827.6,5.00,0.00,22.3,21.5,00.0,31.4,24.1,10.1,0000.0,0002.97,0007.15,0002.18
2022-03-22 05:24:00,,0827.6,5.00,0.00,22.3,21.5,00.0,31.4,24.1,10.1,0000.0,0002.97,0007.10,0002.17
2022-03-22 05:25:00,,0827.6,5.01,0.00,22.3,21.5,00.0,31.4,24.1,10.2,0000.0,0003.04,0007.33,0002.17
2022-03-22 05:26:00,,0827.6,5.01,0.00,22.3,21.5,00.0,31.4,24.1,10.1,0000.0,0002.97,0007.12,0002.14
2022-03-22 05:27:00,,0827.6,5.00,0.00,22.3,21.5,00.0,31.3,24.1,10.1,0000.0,0002.96,0007.07,0002.14
2022-03-22 05:28:00,,0827.6,4.99,0.00,22.3,21.4,00.0,31.3,24.0,10.1,0000.0,0002.93,0006.57,0002.12
2022-03-22 05:29:00,,0827.6,5.00,0.00,22.3,21.4,00.0,31.3,24.0,10.0,0000.0,0002.87,0006.12,0002.11
2022-03-22 05:30:00,,0827.6,5.01,0.00,22.3,21.4,00.0,31.3,24.0,09.9,0000.0,0002.89,0005.98,0002.10
2022-03-22 05:31:00,,0827.6,5.00,0.00,22.3,21.4,00.0,31.3,24.0,09.8,0000.0,0002.86,0005.30,0002.11
2022-03-22 05:32:00,,0827.7,5.01,0.00,22.3,21.4,00.0,31.3,24.0,10.0,0000.0,0002.87,0004.59,0002.10
2022-03-22 05:33:00,,0827.6,4.99,0.00,22.2,21.4,00.0,31.3,24.0,10.1,0000.0,0002.88,0004.57,0002.09
2022-03-22 05:34:00,,0827.7,4.98,0.00,22.2,21.4,00.0,31.3,24.0,10.0,0000.0,0002.92,0004.73,0002.08
2022-03-22 05:35:00,,0827.7,5.00,0.00,22.2,21.4,00.0,31.3,24.0,10.1,0000.0,0002.99,0005.04,0002.07
2022-03-22 05:36:00,,0827.7,5.01,0.00,22.2,21.4,00.0,31.3,24.0,10.1,0000.0,0003.00,0005.32,0002.07
2022-03-22 05:37:00,,0827.7,5.00,0.00,22.2,21.4,00.0,31.3,24.0,10.2,0000.0,0003.12,0006.11,0002.07
2022-03-22 05:38:00,,0827.7,5.00,0.00,22.2,21.4,00.0,31.2,24.0,10.1,0000.0,0003.19,0006.43,0002.07
2022-03-22 05:39:00,,0827.6,5.01,0.00,22.2,21.4,00.0,31.2,24.0,10.0,0000.0,0003.26,0007.33,0002.06
2022-03-22 05:40:00,,0827.7,4.99,0.00,22.2,21.4,00.0,31.2,24.0,10.0,0000.0,0003.31,0008.88,0002.05
2022-03-22 05:41:00,,0827.6,5.00,0.00,22.2,21.3,00.0,31.2,23.9,10.0,0000.0,0003.32,0009.49,0002.04
2022-03-22 05:42:00,,0827.5,5.00,0.00,22.2,21.3,00.0,31.2,24.0,09.9,0000.0,0003.34,0009.60,0001.99
2022-03-22 05:43:00,,0827.6,5.00,0.00,22.2,21.3,00.0,31.2,23.9,09.8,0000.0,0003.32,0009.58,0001.97
2022-03-22 05:44:00,,0827.6,5.00,0.00,22.2,21.3,00.0,31.2,23.9,09.9,0000.0,0003.31,0009.61,0001.94
2022-03-22 05:45:00,,0827.7,5.00,0.00,22.2,21.3,00.0,31.2,23.9,09.9,0000.0,0003.28,0009.55,0001.91
2022-03-22 05:46:00,,0827.6,5.00,0.00,22.1,21.3,00.0,31.2,23.9,10.0,0000.0,0003.23,0009.65,0001.88
2022-03-22 05:47:00,,0827.6,5.00,0.00,22.1,21.3,00.0,31.2,23.9,10.0,0000.0,0003.19,0009.66,0001.83
2022-03-22 05:48:00,,0827.6,5.00,0.00,22.1,21.3,00.0,31.2,23.9,09.9,0000.0,0003.11,0009.28,0001.80
2022-03-22 05:49:00,,0827.6,5.00,0.00,22.1,21.3,00.0,31.2,23.9,09.9,0000.0,0002.94,0009.07,0001.76
2022-03-22 05:50:00,,0827.6,5.02,0.00,22.1,21.2,00.0,31.2,23.8,10.0,0000.0,0002.72,0008.65,0001.71
2022-03-22 05:51:00,,0827.6,5.01,0.00,22.1,21.4,00.0,31.2,23.9,09.8,0000.0,0002.70,0007.54,0001.69
2022-03-22 05:52:00,,0827.6,4.99,0.00,22.2,22.2,00.0,31.2,24.1,09.9,0000.0,0002.62,0006.32,0001.65
2022-03-22 05:53:00,,0827.6,5.00,0.00,22.4,22.9,00.0,31.2,24.3,10.0,0000.0,0002.52,0005.92,0001.65
2022-03-22 05:54:00,,0827.6,5.00,0.00,22.5,22.9,00.0,31.3,24.4,09.9,0000.0,0002.44,0005.67,0001.65
2022-03-22 05:55:00,,0827.6,5.00,0.00,22.5,22.7,00.0,31.3,24.4,09.9,0000.0,0002.46,0005.85,0001.64
2022-03-22 05:56:00,,0827.6,5.00,0.00,22.5,22.5,00.0,31.3,24.4,10.0,0000.0,0002.47,0006.26,0001.63
2022-03-22 05:57:00,,0827.6,5.01,0.00,22.5,22.3,00.0,31.3,24.3,09.9,0000.0,0002.44,0006.86,0001.62
2022-03-22 05:58:00,,0827.7,4.99,0.00,22.5,22.2,00.0,31.3,24.3,09.9,0000.0,0002.42,0006.70,0001.61
2022-03-22 05:59:00,,0827.7,5.01,0.00,22.5,22.0,00.0,31.3,24.3,09.8,0000.0,0002.42,0007.58,0001.60
